User: anonymous   Login
Location: Unspecified
(0.0000°N, 0.0000°E)
Time: 01:02:54
(UTC+00:00)
Language:

STARLINK-4555 - Orbit

View from above orbital plane
View from above orbital plane
View from above satellite
View from above satellite

Ground track
Ground track

The orbit is defined by the following mean orbital elements,

1 53572U          26145.48736435 +.00000000 +00000-0 +47779-3 0 00000
2 53572  53.2123  69.0364 0001483  93.9769 266.1392 15.08792092    09
Epoch (UTC): 25 May 2026 11:41:48
Eccentricity: 0.0001483
inclination: 53.2123°
perigee height: 539 km
apogee height: 541 km
right ascension of ascending node: 69.0364°
argument of perigee: 93.9769°
revolutions per day: 15.08792092
mean anomaly at epoch: 266.1392°

The dashed part of the orbit path shows where the satellite is in the earth's shadow,  

DLR